JCSAT-16

Last updated on Thu Aug 13 2026 00:03:00 GMT+0000 (Coordinated Universal Time)

1 41729U 16050A 26224.52928127 -.00000269 00000+0 00000+0 0 9993 2 41729 0.0133 91.3358 0000938 66.9910 137.1290 1.00269998 36637
UTC large
Height (km)
Speed (km/s)
/
Latitude / Longitude
Inclination (degrees)
Orbital Period (minutes)
Azimuth
Elevation
Range (km)
Doppler Factor

Next 0 passes for location: London (51.5072 / 0.1276)

No passes found over London.
JCSAT-16